Overview Statistics Trail Chart Weather Telemetry Raw packets
 

This is the latest recevied weather packets stored in our database for station/object K2CAT. If no packets are shown the sender has not sent any weather packets the latest 10 day(s).

<< 20 21 22 23 24 25 26 >>
Time Temp. Humidity Pressure Rain* Wind** Luminosity Snow
1777562418 12.78° C 93% 1007.3 hPa 0 mm - 342 W/m² -
1777562114 12.22° C 92% 1007.1 hPa 0 mm - 275 W/m² -
1777561812 12.22° C 93% 1007.2 hPa 0 mm - 239 W/m² -
1777561508 12.78° C 93% 1007.2 hPa 0 mm - 191 W/m² -
1777561203 12.78° C 93% 1007.2 hPa 0 mm - 194 W/m² -
1777560897 12.22° C 93% 1007.3 hPa 0 mm - 261 W/m² -
1777560595 12.22° C 93% 1007.1 hPa 0 mm - 248 W/m² -
1777560293 11.67° C 94% 1007.2 hPa 0 mm - 233 W/m² -
1777559990 11.67° C 95% 1007 hPa 0 mm - 194 W/m² -
1777559690 11.67° C 95% 1007 hPa 0 mm - 138 W/m² -
1777559388 11.11° C 96% 1007.1 hPa 0 mm - 121 W/m² -
1777559084 11.67° C 97% 1007.2 hPa 0 mm - 129 W/m² -
1777558779 11.67° C 97% 1007.2 hPa 0 mm - 130 W/m² -
1777558475 11.67° C 97% 1007.2 hPa 0 mm - 134 W/m² -
1777558172 11.11° C 97% 1007.3 hPa 0 mm - 126 W/m² -
1777557868 11.11° C 97% 1007.1 hPa 0 mm - 154 W/m² -
1777557565 11.11° C 98% 1007.1 hPa 0 mm - 231 W/m² -
1777557261 11.11° C 98% 1007 hPa 0 mm - 220 W/m² -
1777556957 10.56° C 99% 1007.3 hPa 0 mm - 218 W/m² -
1777556653 10.56° C 99% 1007.1 hPa 0 mm - 166 W/m² -
1777556349 10.56° C 99% 1007.1 hPa 0 mm - 155 W/m² -
1777556045 10° C 99% 1007.3 hPa 0 mm - 151 W/m² -
1777555745 10.56° C 99% 1007.3 hPa 0 mm - 175 W/m² -
1777555441 10° C 99% 1007.4 hPa 0 mm - 205 W/m² -
1777555137 10° C 99% 1007.4 hPa 0 mm - 187 W/m² -

* Rain latest hour (hover to see other rain measurements)
** Current wind speed in m/s (hover to see current wind gust speed)